Kelsey Dam CS, Manitoba

2:53 PM CDT on April 27, 2017 (GMT -0500)
Kelsey Dam CS

Weather History for CZKD - February, 2013

Change the Weather History Date:

Thursday, February 28, 2013

  Actual Average (CYTH) Record (CYTH)
Temperature  
Mean Temperature 4 °F -  
Max Temperature 15 °F 9 °F 30 °F (1999)
Min Temperature -6 °F -8 °F -38 °F (2003)
Degree Days  
Heating Degree Days 60    
Moisture  
Dew Point -1 °F    
Average Humidity 71    
Maximum Humidity 87    
Minimum Humidity 50    
Precipitation  
Precipitation 0.04 in - - ()
Sea Level Pressure  
Sea Level Pressure 30.57 in    
Wind  
Wind Speed 4 mph ()    
Max Wind Speed 8 mph    
Max Gust Speed -    
Averages and records for this station are not official NWS values.
T = Trace of Precipitation, MM = Missing Value Source: Averaged Metar Reports

Daily Weather History Graph

Daily Weather History Graph

Search for Another Location

Airport or City:

Trip Planner

Search our weather history database for the weather conditions in past years. The results will help you decide how hot, cold, wet, or windy it might be!

Date:

Astronomy

Feb. 28, 2013 Rise Set
Actual Time 7:19 AM CST 5:58 PM CST
Civil Twilight 6:41 AM CST 6:36 PM CST
Nautical Twilight 5:58 AM CST 7:19 PM CST
Astronomical Twilight 5:15 AM CST 8:03 PM CST
Moon 10:16 PM CST (2/28) 7:48 AM CST (2/28)
Length of Visible Light 11h 54m
Length of Day
10h 39m
Waning Gibbous, 90% of the Moon is Illuminated
Feb 28
Waning Gibbous
Mar 4
Last Quarter
Mar 11
New
Mar 19
First Quarter
Mar 27
Full

Hourly Weather History & Observations

Time (CST) Temp. Windchill Dew Point Humidity Pressure Visibility Wind Dir Wind Speed Gust Speed Precip Events Conditions
12:00 AM -3.8 °F - -7.4 °F 85% 30.56 in - SE 1.2 mph - N/A   Unknown
1:00 AM -4.4 °F -12.8 °F -7.4 °F 87% 30.56 in - ESE 3.5 mph - N/A   Unknown
2:00 AM -1.1 °F -9.1 °F -4.7 °F 85% 30.57 in - SE 3.5 mph - N/A   Unknown
5:00 AM 0.5 °F -9.3 °F -4.2 °F 81% 30.57 in - SE 4.6 mph - N/A   Unknown
6:00 AM 1 °F - -4 °F 71% 30.58 in - SSE 3.5 mph - -  
7:00 AM 1.4 °F -8.3 °F -3.8 °F 79% 30.59 in - SSE 4.6 mph - N/A   Unknown
8:00 AM 1.8 °F -7.8 °F -3.8 °F 77% 30.59 in - SSE 4.6 mph - N/A   Unknown
9:00 AM 2.8 °F -8.2 °F -3.1 °F 76% 30.58 in - SSE 5.8 mph - N/A   Unknown
10:00 AM 4.6 °F -7.4 °F -1.8 °F 75% 30.59 in - SSE 6.9 mph - N/A   Unknown
11:00 AM 7.2 °F -1.5 °F -0.4 °F 71% 30.59 in - SSE 4.6 mph - N/A   Unknown
12:00 PM 10 °F - 1 °F 53% 30.60 in - South 4.6 mph - -  
12:00 PM 9.5 °F 1.2 °F 0.7 °F 67% 30.60 in - South 4.6 mph - N/A   Unknown
1:00 PM 11.5 °F 0.9 °F 3.4 °F 70% 30.59 in - SE 6.9 mph - N/A   Unknown
2:00 PM 14.0 °F 2.9 °F 4.1 °F 65% 30.58 in - SE 8.1 mph - N/A   Unknown
3:00 PM 14.5 °F 3.6 °F 3.9 °F 63% 30.56 in - SSE 8.1 mph - N/A   Unknown
4:00 PM 15.6 °F 4.9 °F 3.7 °F 59% 30.55 in - SSE 8.1 mph - N/A   Unknown
5:00 PM 14.5 °F 4.6 °F 2.8 °F 60% 30.55 in - SSE 6.9 mph - N/A   Unknown
6:00 PM 12 °F - 2 °F 50% 30.54 in - SSE 5.8 mph - -  
6:00 PM 12.2 °F 2.9 °F 1.9 °F 64% 30.54 in - SSE 5.8 mph - N/A   Unknown
7:00 PM 9.1 °F 0.8 °F 0.9 °F 69% 30.54 in - ESE 4.6 mph - N/A   Unknown
8:00 PM 8.1 °F -0.5 °F 0.5 °F 71% 30.54 in - SE 4.6 mph - N/A   Unknown
9:00 PM 7.5 °F -1.1 °F 0.3 °F 72% 30.54 in - SE 4.6 mph - N/A   Unknown
10:00 PM 6.1 °F -2.8 °F -0.2 °F 75% 30.54 in - SE 4.6 mph - N/A   Unknown
11:00 PM 5.5 °F -1.5 °F -0.6 °F 76% 30.54 in - SE 3.5 mph - N/A   Unknown